{"data":{"norad_id":66425,"epoch":"2026-09-20T16:35:13.035840Z","epoch_age_seconds":76948,"freshness":"FRESH","line1":"1 66425U 25259D   26263.69112310  .00012278  00000+0  45469-3 0  9998","line2":"2 66425  43.0022 253.1369 0001227 275.2643  84.8069 15.27597941 49318","mean_motion":15.27597941,"eccentricity":0.0001227,"inclination_deg":43.0022,"raan_deg":253.1369,"arg_perigee_deg":275.2643,"mean_anomaly_deg":84.8069,"bstar":0.00045469,"rev_number":4931,"period_min":94.265641590047,"perigee_km":482.15351381481,"apogee_km":483.83723569958,"semimajor_km":6861.1323747572,"source":"CELESTRAK","updated_at":"2026-09-21T09:00:35.906381Z"}}